This is the latest recevied weather packets stored in our database for station/object K5KHP. If no packets are shown the sender has not sent any weather packets the latest 10 day(s).
| Time | Temp. | Humidity | Pressure | Rain* | Wind** | Luminosity | Snow |
|---|---|---|---|---|---|---|---|
| 1778107630 | 21.11° C | 65% | 1015.5 hPa | 0 mm | - | 401 W/m² | - |
| 1778107327 | 20.56° C | 65% | 1015.8 hPa | 0 mm | - | 416 W/m² | - |
| 1778107023 | 20.56° C | 67% | 1015.9 hPa | 0 mm | - | 458 W/m² | - |
| 1778106719 | 21.11° C | 64% | 1016 hPa | 0 mm | - | 491 W/m² | - |
| 1778106416 | 20.56° C | 64% | 1016 hPa | 0 mm | - | 514 W/m² | - |
| 1778106111 | 21.11° C | 65% | 1015.9 hPa | 0 mm | - | 502 W/m² | - |
| 1778105809 | 21.11° C | 65% | 1016 hPa | 0 mm | - | 504 W/m² | - |
| 1778105507 | 21.11° C | 64% | 1016.1 hPa | 0 mm | - | 536 W/m² | - |
| 1778105204 | 21.11° C | 64% | 1016.2 hPa | 0 mm | - | 544 W/m² | - |
| 1778104898 | 20.56° C | 66% | 1016.4 hPa | 0 mm | - | 532 W/m² | - |
| 1778104595 | 20.56° C | 65% | 1016.5 hPa | 0 mm | - | 567 W/m² | - |
| 1778104291 | 20.56° C | 66% | 1016.4 hPa | 0 mm | - | 581 W/m² | - |
| 1778103988 | 21.11° C | 65% | 1016.6 hPa | 0 mm | - | 594 W/m² | - |
| 1778103685 | 21.11° C | 65% | 1016.4 hPa | 0 mm | - | 597 W/m² | - |
| 1778103384 | 21.11° C | 66% | 1016.5 hPa | 0 mm | - | 619 W/m² | - |
| 1778103080 | 21.11° C | 64% | 1016.7 hPa | 0 mm | - | 620 W/m² | - |
| 1778102778 | 21.11° C | 64% | 1016.7 hPa | 0 mm | - | 631 W/m² | - |
| 1778102473 | 20.56° C | 65% | 1016.9 hPa | 0 mm | - | 631 W/m² | - |
| 1778102168 | 20.56° C | 64% | 1016.7 hPa | 0 mm | - | 599 W/m² | - |
| 1778101866 | 21.11° C | 64% | 1016.8 hPa | 0 mm | - | 593 W/m² | - |
| 1778101562 | 21.11° C | 65% | 1016.7 hPa | 0 mm | - | 610 W/m² | - |
| 1778101259 | 20.56° C | 65% | 1016.8 hPa | 0 mm | - | 632 W/m² | - |
| 1778100956 | 20.56° C | 64% | 1016.9 hPa | 0 mm | - | 623 W/m² | - |
| 1778100650 | 20.56° C | 64% | 1016.8 hPa | 0 mm | - | 609 W/m² | - |
| 1778100349 | 20.56° C | 65% | 1016.9 hPa | 0 mm | - | 607 W/m² | - |
* Rain latest hour (hover to see other rain measurements)
** Current wind speed in m/s (hover to see current wind gust speed)